TimeCST,TemperatureF,Dew PointF,Humidity,Sea Level PressureIn,VisibilityMPH,Wind Direction,Wind SpeedMPH,Gust SpeedMPH,PrecipitationIn,Events,Conditions,WindDirDegrees,DateUTC
12:15 AM,19.4,16.2,87,29.78,10.0,SSW,4.6,-,N/A,,Overcast,210,2013-01-19 06:15:00
12:35 AM,19.4,16.2,87,29.78,10.0,SW,4.6,-,N/A,,Overcast,220,2013-01-19 06:35:00
12:55 AM,19.6,16.5,88,29.78,10.0,SW,3.5,-,N/A,,Overcast,220,2013-01-19 06:55:00
1:15 AM,19.8,16.5,87,29.77,10.0,Calm,Calm,-,N/A,,Overcast,0,2013-01-19 07:15:00
1:35 AM,19.9,16.7,87,29.76,5.0,Calm,Calm,-,N/A,Snow,Light Snow,0,2013-01-19 07:35:00
1:55 AM,19.8,16.9,89,29.76,4.0,Calm,Calm,-,N/A,Snow,Light Snow,0,2013-01-19 07:55:00
2:15 AM,19.9,16.9,88,29.77,7.0,Calm,Calm,-,N/A,,Overcast,0,2013-01-19 08:15:00
2:35 AM,20.1,17.2,89,29.76,10.0,Calm,Calm,-,N/A,,Overcast,0,2013-01-19 08:35:00
2:55 AM,20.3,17.4,89,29.76,10.0,Calm,Calm,-,N/A,,Overcast,0,2013-01-19 08:55:00
3:15 AM,20.5,17.6,89,29.75,10.0,Calm,Calm,-,N/A,,Overcast,0,2013-01-19 09:15:00
3:35 AM,20.8,18.1,89,29.73,10.0,Calm,Calm,-,N/A,,Overcast,0,2013-01-19 09:35:00
3:55 AM,21.0,18.3,89,29.73,10.0,Calm,Calm,-,N/A,,Overcast,0,2013-01-19 09:55:00
4:15 AM,21.2,18.3,89,29.72,10.0,Calm,Calm,-,N/A,,Overcast,0,2013-01-19 10:15:00
4:35 AM,21.2,18.3,89,29.71,10.0,Calm,Calm,-,N/A,,Overcast,0,2013-01-19 10:35:00
4:55 AM,21.2,18.3,89,29.70,10.0,Calm,Calm,-,N/A,,Overcast,0,2013-01-19 10:55:00
5:15 AM,21.9,18.5,87,29.69,10.0,Calm,Calm,-,N/A,,Overcast,0,2013-01-19 11:15:00
5:35 AM,22.1,18.5,86,29.68,10.0,Calm,Calm,-,N/A,,Overcast,0,2013-01-19 11:35:00
5:55 AM,22.1,19.0,88,29.71,10.0,West,4.6,-,N/A,,Overcast,280,2013-01-19 11:55:00
7:15 AM,21.4,18.7,89,29.67,10.0,Calm,Calm,-,N/A,,Overcast,0,2013-01-19 13:15:00
8:15 AM,19.4,17.6,93,29.64,7.0,Calm,Calm,-,N/A,,Overcast,0,2013-01-19 14:15:00
8:35 AM,19.4,17.4,92,29.64,10.0,Calm,Calm,-,N/A,,Mostly Cloudy,0,2013-01-19 14:35:00
9:35 AM,21.2,18.1,88,29.62,10.0,SW,5.8,-,N/A,,Mostly Cloudy,230,2013-01-19 15:35:00
9:55 AM,22.1,18.5,86,29.63,10.0,West,9.2,-,N/A,,Overcast,260,2013-01-19 15:55:00
10:15 AM,23.0,19.4,86,29.63,10.0,WSW,8.1,-,N/A,,Overcast,250,2013-01-19 16:15:00
10:35 AM,24.4,20.3,84,29.61,10.0,SW,9.2,-,N/A,,Overcast,230,2013-01-19 16:35:00
11:15 AM,27.5,22.6,82,29.59,10.0,WSW,10.4,-,N/A,,Scattered Clouds,250,2013-01-19 17:15:00
11:35 AM,28.8,23.5,81,29.59,10.0,West,9.2,-,N/A,,Mostly Cloudy,260,2013-01-19 17:35:00
11:55 AM,30.9,24.4,77,29.59,10.0,West,10.4,16.1,N/A,,Overcast,270,2013-01-19 17:55:00
12:15 PM,32.0,24.4,74,29.59,10.0,West,16.1,27.6,N/A,,Overcast,280,2013-01-19 18:15:00
12:35 PM,32.0,24.4,74,29.58,10.0,West,13.8,23.0,N/A,,Overcast,280,2013-01-19 18:35:00
12:55 PM,32.0,24.3,73,29.58,10.0,West,15.0,23.0,N/A,,Overcast,270,2013-01-19 18:55:00
1:15 PM,32.7,23.9,70,29.57,10.0,West,17.3,24.2,N/A,,Overcast,280,2013-01-19 19:15:00
1:35 PM,32.4,22.8,68,29.57,10.0,WNW,16.1,25.3,N/A,,Overcast,300,2013-01-19 19:35:00
1:55 PM,32.0,22.8,69,29.57,10.0,NW,15.0,25.3,N/A,,Overcast,320,2013-01-19 19:55:00
2:15 PM,28.0,20.8,74,29.60,10.0,NW,31.1,35.7,N/A,,Overcast,320,2013-01-19 20:15:00
2:35 PM,24.3,16.3,72,29.63,10.0,NW,31.1,39.1,N/A,,Overcast,310,2013-01-19 20:35:00
2:55 PM,21.4,11.7,66,29.66,7.0,NW,28.8,36.8,N/A,,Overcast,310,2013-01-19 20:55:00
3:15 PM,19.4,8.6,63,29.68,10.0,NW,23.0,36.8,N/A,,Overcast,310,2013-01-19 21:15:00
3:35 PM,17.8,6.4,61,29.70,10.0,WNW,27.6,39.1,N/A,,Scattered Clouds,300,2013-01-19 21:35:00
3:55 PM,17.4,6.8,63,29.72,10.0,WNW,23.0,32.2,N/A,,Mostly Cloudy,300,2013-01-19 21:55:00
4:15 PM,15.6,6.1,66,29.75,7.0,WNW,27.6,34.5,N/A,,Overcast,300,2013-01-19 22:15:00
4:35 PM,14.0,4.3,65,29.77,7.0,WNW,18.4,35.7,N/A,,Overcast,300,2013-01-19 22:35:00
4:55 PM,12.7,4.1,68,29.80,7.0,WNW,18.4,33.4,N/A,,Overcast,300,2013-01-19 22:55:00
5:15 PM,11.7,3.9,71,29.83,4.0,NW,20.7,32.2,N/A,,Haze,310,2013-01-19 23:15:00
5:35 PM,10.9,3.2,71,29.86,7.0,WNW,17.3,25.3,N/A,,Overcast,300,2013-01-19 23:35:00
5:55 PM,10.2,4.8,79,29.88,2.5,NW,18.4,24.2,N/A,Snow,Light Snow,320,2013-01-19 23:55:00
6:15 PM,9.3,-2.6,59,29.90,10.0,NW,21.9,33.4,N/A,,Overcast,320,2013-01-20 00:15:00
6:35 PM,8.1,-4.0,58,29.92,10.0,NW,24.2,29.9,N/A,,Overcast,320,2013-01-20 00:35:00
6:55 PM,7.0,-4.2,60,29.93,10.0,NW,20.7,32.2,N/A,,Overcast,310,2013-01-20 00:55:00
7:15 PM,6.6,-4.0,62,29.96,10.0,NW,21.9,31.1,N/A,,Overcast,320,2013-01-20 01:15:00
7:35 PM,5.9,-5.6,59,29.98,10.0,NNW,24.2,35.7,N/A,,Overcast,330,2013-01-20 01:35:00
7:55 PM,5.7,-3.8,65,30.00,10.0,WNW,15.0,27.6,N/A,,Overcast,300,2013-01-20 01:55:00
8:15 PM,5.0,-6.3,60,30.01,10.0,NW,18.4,32.2,N/A,,Scattered Clouds,320,2013-01-20 02:15:00
8:35 PM,4.1,-6.2,63,30.03,10.0,NNW,23.0,34.5,N/A,,Clear,330,2013-01-20 02:35:00
8:55 PM,3.7,-6.5,62,30.04,10.0,NNW,15.0,25.3,N/A,,Clear,330,2013-01-20 02:55:00
9:15 PM,3.6,-6.7,62,30.06,10.0,NW,15.0,26.5,N/A,,Clear,320,2013-01-20 03:15:00
9:35 PM,3.2,-6.7,63,30.07,10.0,NW,18.4,29.9,N/A,,Clear,320,2013-01-20 03:35:00
9:55 PM,2.3,-6.9,66,30.08,10.0,NW,20.7,24.2,N/A,,Clear,320,2013-01-20 03:55:00
10:15 PM,2.3,-7.1,65,30.10,10.0,NW,24.2,32.2,N/A,,Clear,320,2013-01-20 04:15:00
10:35 PM,2.1,-7.1,66,30.11,10.0,NW,19.6,34.5,N/A,,Clear,320,2013-01-20 04:35:00
10:55 PM,1.8,-7.6,65,30.13,10.0,NW,16.1,25.3,N/A,,Clear,320,2013-01-20 04:55:00
11:15 PM,1.6,-8.1,64,30.13,10.0,NNW,16.1,31.1,N/A,,Clear,340,2013-01-20 05:15:00
11:35 PM,1.2,-8.5,64,30.15,10.0,NNW,12.7,26.5,N/A,,Clear,330,2013-01-20 05:35:00